IRIDIUM 33 DEB, 46979

Orbit data source: Space-Track

IRIDIUM 33 DEB, 46979 is space debris in LEO originally from a launch on Sun, 14 Sep 1997 UTC launched from the Tyuratam Missile And Space Complex (TTMTR). The debris from Iridium 33, an American commercial communications satellite, has been tracked extensively since its accidental collision with the defunct Russian satellite Cosmos 2251 in 2009. This event, occurring at high speed in low Earth orbit (LEO), generated thousands of pieces of space debris, significantly increasing the risk of further collisions. The Iridium 33 debris cloud has impacted space traffic management and orbital debris mitigation strategies, making it a subject of ongoing study in space situational awareness.

Loading next visibility...
Identifier
46979, 1997-051ACM
Orbit
LEO
Country
Flag of USUS
Related business
Manufacturer
Unknown
Mission
Spacecraft
Bus & Motor
Unknown
Mass
Unknown
Launch date (UTC)
1997-09-14 (29 years ago)
Launch vehicle
Unknown
Launch site
Tyuratam Missile And Space Complex (TTMTR)
Object type
Payload
Rocket body
Debris
Shape & HBR
Unknown shape, 0.059 m
Radar Cross Section
Small (<0.1 m²)

Expand to show TLE details & history
Last TLE update: 3 weeks ago

TLE from 3 weeks ago
0 IRIDIUM 33 DEB
1 46979U 97051ACM 26248.81219839  .00057352  00000-0  23678-2 0  9990
2 46979  86.3134 281.1039 0007714 340.3269  19.7677 15.23765769394466
Epoch: 2026-09-05T19:29Z
TLE epoch observation values (Epoch: 2026-09-05T19:29:33.940Z)
Latitude
-0.00007°
Longitude
3.79618°
Altitude
492.68 km
Speed
7.621 km/s
True Right ascension
18h 44m 24s
True Declination
0° 00' 00"
Sunlit
Object was in full shadow at epoch
Visualization orbit readout
Latitude
Unknown
Longitude
Unknown
Altitude
Unknown
Speed
Unknown
Apparent Right ascension
Unknown
Apparent Declination
Unknown
Sunlit
N/A
Visualization observer readout
Local Sidereal Time
08:28:11
Azimuth
Unknown
Elevation
Unknown
Doppler factor
Unknown
Orbital elements
Apogee altitude
496.634 km
Perigee altitude
486.036 km
Semi-major axis
6,869.472 km
Eccentricity
0.00077
Inclination
86.3134°
RAAN
281.1039°
Arg. of periapsis
340.3269°
True anomaly
19.79762°
Mean anomaly
19.7677°
Eccentric anomaly
19.78266°
Mean motion
3.81205 °/min
Orbital period
94.44 mins
BSTAR
0.0023678

Documentation

Showing up to 5 results
|